Torna al catalogo

DELTA 1 DEB

AttivoLEO
NORAD 10719·DEBRIS·🇺🇸 United States

Lanciato Jul 29, 1976 da Vandenberg Space Force Base

Loading…

Prossimi Passaggi (prossime 24 ore)

TLE

AggiornatoSource: Space-Track

Epoca: Sep 13, 2026, 23:33 UTC

1 10719U 76077AQ  26256.98134766  .00000082  00000-0  13778-2 0  9998
2 10719 101.8880 257.7192 0232055 297.1992  85.4330 12.01502218192013

Traccia DELTA 1 DEB in tempo reale con AllMySat

Download on the App Store